Location: North Bay Shore
(40.7362°N, 73.2626°W)
Time: 10:15:53
(UTC+00:00)

Cosmos 1689 Rocket - Pass Details

Date: 29 October 2020
Orbit: 360 x 375 km, 97.5° (Epoch: 23 November)

Event Time Altitude Azimuth Distance (km) Brightness Sun altitude
Rises 22:55:38 0° 13° (NNE) 2,205 5.7 -12.5°
Reaches altitude 10° 22:57:35 10° 16° (NNE) 1,352 4.6 -12.9°
Maximum altitude 23:00:27 75° 101° (E) 379 1.8 -13.4°
Drops below altitude 10° 23:03:17 10° 188° (S) 1,340 5.0 -14.0°
Sets 23:05:13 0° 190° (S) 2,182 6.1 -14.3°
